Regional Weather Roundup
Issued by NWS Goodland, KS

Home | Current Version | Previous Version | Graphics & Text | Print | Product List | Glossary Off
Versions: 1 2 3 4 5 6 7 8 9 10 11 12 13 14 15 16 17 18 19 20 21 22 23 24 25 26 27 28 29 30 31 32 33 34 35 36 37 38 39 40 41 42 43 44 45 46 47 48 49 50

000
ASUS43 KGLD 210908
RWRGLD

GOODLAND FORECAST AREA HOURLY WEATHER ROUNDUP
NATIONAL WEATHER SERVICE GOODLAND KS
200 AM MST SUN JAN 21 2018

...OFFICIAL OBSERVATIONS...

CITY           SKY/WX    TMP DP  RH WIND       PRES   REMARKS
GOODLAND KS    CLOUDY    30  27  88 N13       29.77S WCI  20
HILL CITY KS   CLOUDY    36  35  96 N13       29.74R FOG
IMPERIAL NEB   CLOUDY    31  29  92 N14       29.83R
MCCOOK NEB     CLOUDY    31  28  89 N14       29.79R
AKRON CO       CLOUDY    27  25  92 NE13      29.79R WCI  16
BURLINGTON CO  CLOUDY    30  27  88 N16       29.77S WCI  19
LIMON CO       CLOUDY    26  25  96 NE8       29.75S
$$

...UNOFFICIAL OBSERVATIONS...

CITY           SKY/WX    TMP DP  RH WIND       PRES   REMARKS
COLBY KS       CLOUDY    32  32 100 N15G22    29.79R
NORTON KS      CLOUDY    36  28  75 N12G21    29.75
SHARON SPRINGS   N/A     32  29  88 NW15G23     N/A
KIT CARSON CO    N/A     29  26  87 MISG        N/A
YUMA CO        CLOUDY    28  27  93 NE8       29.80R
$$




USA.gov is the U.S. government's official web portal to all federal, state and local government web resources and services.